Simultaneous Nadir Overpasses (SNOs) Predictions

Prediction of SNOs between TERRA and METOP-C Satellite Orbit:

Table of predicted SNOs for the next 14.0 days since TLE Epoch: 8/12/2023
Index Date (TERRA) Time (TERRA) Lat,Lon (TERRA) SZA (TERRA ) Date (METOP-C) Time (METOP-C) Lat,Lon (METOP-C) SZA (METOP-C ) Distance(km) Time Diff (sec)
1 08/14/2023 03:22:22 80.68, 159.68 67.41 08/14/2023 03:21:32 80.69, 159.81 67.41 2.50 50
2 08/14/2023 04:11:42 -80.75, -31.93 112.47 08/14/2023 04:12:10 -80.75, -31.88 112.45 0.90 28
3 08/16/2023 18:43:48 -80.66, 109.09 111.80 08/16/2023 18:42:37 -80.67, 109.22 111.81 2.55 71
4 08/16/2023 19:33:08 80.72, -82.56 68.33 08/16/2023 19:33:15 80.73, -82.42 68.35 2.54 7
5 08/19/2023 10:54:34 -80.69,-133.32 110.88 08/19/2023 10:54:21 -80.68,-133.43 110.90 2.20 13
6 08/19/2023 11:43:54 80.75, 35.04 69.24 08/19/2023 11:44:59 80.75, 34.94 69.26 1.77 65
7 08/22/2023 02:15:58 80.67, 176.08 69.96 08/22/2023 02:15:25 80.66, 175.98 69.94 1.98 33
8 08/22/2023 03:05:18 -80.73, -15.55 109.91 08/22/2023 03:06:02 -80.74, -15.45 109.88 1.91 44
9 08/24/2023 17:37:23 -80.64, 125.35 109.19 08/24/2023 17:36:30 -80.63, 125.19 109.23 3.11 53



Historial Predications of SNOs between TERRA and METOP-C
